Tracking 35048 objects as of 19-Aug-2026
HD Live streaming from Space Station
objects crossing your sky now

CZ-3C DEB

Track CZ-3C DEB now!


NORAD ID: 40196
Int'l Code: 2012-008F
Launch date: February 24, 2012
Source: People's Republic of China (PRC)
Launch site: Xichang Space Center, China (XSC)

Note: This is SATELLITE DEBRIS
Your satellite tracking list
Your tracking list is empty




NASA's NSSDC Master Catalog

Two Line Element Set (TLE):
1 40196U 12008F   26230.00567118 -.00000044  00000-0  80846-3 0  9990
2 40196  21.3604 191.1151 7062603 135.5898 309.5584  2.38486144110589
Source of the keplerian elements: AFSPC